Regional Weather Roundup
Issued by NWS Cleveland, OH

Home | Current Version | Previous Version | Graphics & Text | Print | Product List | Glossary Off
Versions: 1 2 3 4 5 6 7 8 9 10 11 12 13 14 15 16 17 18 19 20 21 22 23 24 25 26 27 28 29 30 31 32 33 34 35 36 37 38 39 40 41 42 43 44 45 46 47 48 49 50

000
ASUS41 KCLE 200012
RWRCLE
OHIO REGIONAL WEATHER ROUNDUP
NATIONAL WEATHER SERVICE WILMINGTON, OH
800 PM EDT TUE SEP 19 2017

NOTE: "FAIR" INDICATES FEW OR NO CLOUDS BELOW 12,000 FEET WITH NO
SIGNIFICANT WEATHER AND/OR OBSTRUCTIONS TO VISIBILITY.

OHZ001>008-015>018-024>027-034-035-043-044-200100-
   NORTHWEST OHIO

CITY           SKY/WX    TMP DP  RH WIND       PRES   REMARKS
DEFIANCE       MOCLDY    69  67  93 NE3       29.93R
FINDLAY        FAIR      72  67  84 SE3       29.92F
TOLEDO EXPRESS CLOUDY    69  69 100 CALM      29.93R FOG
TOLEDO EXEC    FAIR      69  67  93 E3        29.94S FOG
LIMA           FAIR      70  67  90 S6        29.94R
$$

OHZ009>014-019>023-028>033-038-089-200100-
   NORTHEAST OHIO

CITY           SKY/WX    TMP DP  RH WIND       PRES   REMARKS
CLE-HOPKINS    CLOUDY    75  67  76 NE5       29.97S
CLE-LAKEFRONT  CLOUDY    72  68  87 NE6       29.94S
CUY CO. ARPT   MOCLDY    72  68  88 NE7       29.97S
LORAIN-ELYRIA  CLOUDY    69  63  81 E5        29.96S
ASHTABULA      CLOUDY    70  67  90 CALM      29.99S
AKRON-CANTON   CLOUDY    75  63  66 W3        29.98R
WOOSTER        MOCLDY    71  65  81 CALM      29.98R
MANSFIELD      FAIR      70  65  84 SW3       29.97S
YOUNGSTOWN     CLOUDY    72  64  76 NE8       29.98S
$$

OHZ042-051>053-060>062-070>072-077>081-200100-
  SOUTHWEST OHIO

CITY           SKY/WX    TMP DP  RH WIND       PRES   REMARKS
CINC-COVINGTON FAIR      72  68  87 SW5       29.95S
CINC-LUNKEN    CLOUDY    72  71  97 CALM      29.94S
HAMILTON       FAIR      74  67  78 CALM      29.95S
DAYTON         MOCLDY    70  67  90 SE7       29.96S
WRIGHT-PAT AFB LGT RAIN  72  69  90 CALM      29.95R
DAYTON GENERAL CLOUDY    72  65  78 SE5       29.95R
WILMINGTON     CLOUDY    71  70  96 CALM      29.95F
$$

OHZ036-037-039>041-045>050-054>059-063>069-073>076-082>088-200100-
  CENTRAL AND SOUTHEAST OHIO

CITY           SKY/WX    TMP DP  RH WIND       PRES   REMARKS
COLUMBUS       CLOUDY    75  65  70 S5        29.95S
OSU AIRPORT    CLOUDY    73  67  81 S6        29.95S
BOLTON FIELD   CLOUDY    70  66  87 S3        29.96S
RICKENBACK AFB CLOUDY    71  67  85 CALM      29.95S
NEWARK         LGT RAIN  73  66  78 S3        29.96S
MARION         FAIR      71  64  78 S6        29.96S
LANCASTER      CLOUDY    72  67  84 S5        29.97R
ZANESVILLE     CLOUDY    75  66  73 CALM      29.97R
NEW PHILLY     CLOUDY    73  67  81 CALM      29.97S
$$




USA.gov is the U.S. government's official web portal to all federal, state and local government web resources and services.